Vorticity
5 15 19 27 39 31 50 35 26 40 19 22 9 12 1 2 11 9 9 8 4 14 14 20 8 11 13 5 4 5 6 7 10 6 9 9 8 0 3 3 9 15 9
25 -13 22 12 29 47 21 12 12 11 16 29 11 34 34 17 10 10 15 2 9 5 7 9 8 25 1 9 6 7 7 10 8 6 4 12 12 11 6 5 8 5 9
-8 25 37 10 11 13 16 12 16 14 6 14 11 14 21 10 12 6 6 10 3 10 13 10 19 6 -1 11 7 8 8 12 8 3 18 12 5 6 15 12 15 10 8
27 -13 23 26 14 14 9 24 10 14 19 9 20 2 11 11 11 14 12 8 13 9 6 -1 14 8 -1 4 4 9 6 12 3 12 6 10 13 16 15 7 17 8 11
13 31 16 29 26 18 12 8 9 5 5 8 5 7 10 14 21 10 4 3 7 11 11 14 3 3 7 4 5 11 7 8 10 4 2 4 8 8 16 7 10 12 11
47 7 4 14 14 15 8 10 8 8 6 4 6 8 4 10 2 4 4 10 9 -3 5 6 6 11 16 2 6 9 10 6 9 3 5 1 4 14 7 19 9 13 5
36 10 25 5 25 7 11 2 7 6 6 7 -1 12 12 -10 9 2 3 6 6 22 6 -2 7 -7 16 31 10 8 6 8 6 4 3 7 7 16 18 23 22 17 6
8 33 -7 17 20 43 1 1 3 12 2 11 11 8 7 4 -0 7 6 7 19 12 -2 12 15 12 13 26 8 8 7 7 3 9 5 9 7 8 27 15 28 18 10
9 25 -1 16 -17 13 35 61 10 49 -31 -4 29 12 7 -2 30 34 24 -11 -5 -12 -4 40 39 40 11 8 9 7 7 1 5 6 9 7 2 14 7 28 -1 12 13
7 2 12 21 19 16 17 10 48 30 40 -26 30 61 -10 4 -12 11 7 11 67 12 13 1 8 11 -3 -10 -2 9 6 7 9 11 -2 -1 10 4 4 31 28 26 4
12 12 12 -0 2 12 26 14 -3 -6 -3 15 27 47 18 23 3 30 44 18 -7 13 19 13 20 -20 22 20 21 17 4 2 -1 1 5 11 6 4 10 10 20 30 11
15 15 16 16 15 12 10 5 7 13 9 23 14 7 -3 -7 8 22 7 18 24 12 15 16 1 26 -1 -7 5 -5 4 -5 1 3 9 6 8 6 2 10 7 33 23
6 10 8 8 10 11 14 16 13 14 10 12 10 9 8 19 11 14 31 -4 16 -2 7 15 5 -7 4 3 13 25 17 12 3 1 12 3 4 3 6 -1 13 3 19
8 5 4 6 6 7 6 4 5 8 9 9 9 7 12 13 13 10 17 10 12 24 31 21 13 4 6 11 -7 -12 -1 4 10 17 10 6 9 13 6 6 5 10 -2
5 5 4 5 6 6 7 6 7 7 7 7 8 6 8 11 10 7 2 0 9 9 6 11 17 20 28 27 22 14 13 15 11 6 10 3 4 13 9 9 7 5 8
4 3 4 6 6 5 6 7 7 8 7 7 8 9 10 10 11 12 12 11 8 6 6 6 5 6 8 9 12 17 16 22 22 20 7 16 7 -1 5 10 -3 -1 -1
2 6 7 7 5 6 9 8 6 5 5 8 10 10 11 7 3 2 3 4 4 6 10 12 10 8 6 5 7 6 7 9 8 13 25 16 7 7 2 -4 2 -8 5
3 2 0 6 9 8 9 9 8 6 6 6 3 2 4 7 8 9 9 7 6 6 6 6 5 5 7 10 10 7 6 6 7 7 6 9 18 20 24 20 17 12 9
4 1 4 6 4 3 3 5 8 8 7 6 3 1 2 6 10 10 6 3 1 2 5 5 5 4 4 4 4 8 13 9 7 7 7 7 8 8 9 12 15 20 20
2 2 -0 1 3 6 4 5 8 6 6 11 8 2 1 4 5 4 4 4 6 8 10 11 12 12 10 7 5 4 5 8 12 7 5 9 9 7 7 8 9 7 8
3 3 2 2 4 6 5 8 6 6 10 7 3 4 6 5 5 7 11 16 15 13 12 12 15 16 14 12 10 13 16 13 11 10 11 7 5 8 9 8 8 11 9
3 6 4 3 7 5 7 7 8 11 8 6 6 5 6 14 16 10 14 32 40 44 46 47 49 48 48 47 44 38 31 19 12 11 10 11 11 11 10 11 9 9 7
5 4 2 4 6 6 7 7 8 8 9 5 8 18 12 14 37 46 37 30 25 24 22 20 18 17 18 22 30 36 38 38 35 30 25 20 14 11 10 9 10 10 10
4 4 2 5 6 7 6 6 10 6 6 17 9 24 47 38 25 21 19 17 17 17 14 12 12 13 15 17 19 21 23 27 31 33 31 31 28 24 21 18 14 13 11
6 3 4 6 5 5 7 9 5 11 11 17 44 33 22 17 17 18 18 18 17 17 16 15 15 16 16 16 17 18 19 21 23 25 26 28 27 28 28 29 25 21 18
3 3 5 4 4 8 9 7 10 12 33 37 24 15 15 19 21 22 22 21 20 19 18 17 16 16 15 14 14 15 16 17 17 19 20 22 23 25 25 26 25 24 23
Height
5553 5551 5548 5543 5538 5538 5545 5557 5571 5588 5600 5610 5622 5631 5639 5648 5653 5657 5661 5666 5668 5671 5674 5677 5681 5683 5684 5687 5687 5687 5688 5689 5690 5696 5693 5694 5694 5695 5693 5694 5694 5694 5697
5543 5544 5542 5541 5536 5535 5542 5553 5567 5579 5592 5602 5613 5619 5625 5635 5640 5646 5652 5654 5657 5659 5662 5665 5669 5670 5674 5675 5677 5678 5679 5681 5681 5685 5686 5685 5686 5685 5685 5684 5685 5686 5687
5541 5541 5539 5539 5539 5540 5545 5554 5563 5573 5581 5591 5602 5608 5615 5623 5631 5637 5640 5642 5645 5649 5652 5653 5658 5659 5661 5664 5666 5668 5670 5671 5672 5672 5677 5675 5675 5676 5674 5671 5673 5673 5675
5537 5539 5538 5537 5539 5542 5545 5547 5562 5572 5581 5590 5597 5605 5610 5618 5623 5628 5630 5633 5636 5640 5642 5643 5646 5647 5650 5655 5657 5658 5660 5661 5662 5662 5664 5665 5663 5665 5662 5661 5661 5662 5663
5538 5533 5536 5537 5539 5544 5547 5552 5560 5567 5575 5583 5590 5597 5604 5609 5613 5616 5620 5623 5624 5628 5630 5633 5636 5638 5642 5645 5646 5647 5649 5650 5651 5650 5651 5651 5651 5651 5651 5651 5648 5650 5651
5534 5532 5536 5534 5538 5543 5547 5552 5558 5565 5572 5577 5582 5588 5592 5597 5602 5605 5609 5612 5614 5617 5620 5622 5625 5628 5630 5632 5633 5636 5638 5638 5639 5638 5639 5638 5639 5637 5637 5636 5635 5634 5640
5538 5537 5536 5537 5535 5539 5545 5551 5555 5560 5566 5571 5576 5581 5587 5592 5595 5596 5599 5601 5602 5606 5609 5611 5614 5617 5619 5620 5621 5623 5625 5626 5626 5627 5626 5625 5624 5624 5621 5620 5620 5621 5626
5539 5538 5539 5540 5539 5540 5541 5548 5552 5557 5563 5565 5569 5573 5578 5582 5585 5586 5587 5589 5591 5593 5597 5599 5601 5602 5604 5607 5608 5610 5612 5613 5614 5614 5614 5613 5612 5611 5607 5607 5608 5608 5611
5541 5539 5538 5538 5538 5539 5540 5545 5550 5548 5554 5558 5563 5568 5567 5573 5572 5574 5576 5579 5579 5582 5586 5583 5586 5589 5592 5594 5598 5599 5600 5601 5601 5601 5601 5601 5599 5597 5595 5594 5595 5596 5599
5543 5541 5540 5538 5537 5538 5538 5540 5544 5545 5544 5552 5551 5552 5557 5560 5563 5564 5566 5570 5570 5571 5572 5573 5575 5579 5581 5584 5585 5587 5588 5589 5589 5588 5588 5588 5586 5584 5584 5581 5582 5582 5584
5544 5542 5542 5541 5539 5538 5538 5539 5540 5541 5542 5543 5546 5547 5550 5552 5552 5554 5557 5559 5560 5561 5562 5565 5567 5568 5570 5571 5572 5573 5574 5575 5576 5576 5575 5575 5573 5572 5571 5570 5568 5568 5569
5545 5544 5542 5542 5541 5539 5537 5537 5536 5537 5538 5537 5539 5539 5539 5542 5542 5546 5547 5548 5549 5550 5551 5553 5555 5555 5556 5557 5558 5560 5560 5560 5561 5561 5561 5561 5561 5559 5559 5558 5556 5555 5555
5545 5544 5543 5542 5540 5539 5538 5537 5536 5535 5535 5535 5535 5534 5534 5534 5535 5534 5535 5536 5536 5535 5537 5539 5541 5541 5542 5543 5544 5544 5545 5545 5545 5545 5546 5546 5546 5547 5545 5545 5545 5543 5543
5545 5544 5543 5542 5540 5539 5538 5537 5535 5534 5533 5532 5531 5530 5529 5528 5527 5526 5526 5526 5525 5524 5524 5524 5524 5524 5525 5526 5527 5527 5528 5527 5528 5528 5529 5530 5530 5530 5531 5529 5530 5529 5531
5545 5543 5541 5540 5538 5536 5535 5534 5533 5531 5530 5528 5527 5525 5522 5521 5519 5518 5516 5515 5514 5512 5510 5509 5509 5508 5508 5508 5509 5508 5508 5508 5510 5510 5511 5513 5513 5513 5514 5514 5514 5515 5516
5544 5542 5540 5538 5535 5533 5531 5529 5527 5525 5524 5521 5519 5517 5515 5512 5510 5507 5505 5503 5501 5499 5497 5496 5494 5493 5492 5491 5490 5489 5489 5489 5489 5490 5491 5493 5494 5495 5496 5497 5498 5498 5500
5540 5538 5536 5533 5530 5527 5524 5522 5519 5517 5515 5512 5510 5507 5504 5502 5499 5496 5493 5490 5487 5485 5482 5479 5477 5475 5473 5472 5472 5471 5471 5470 5469 5469 5470 5472 5473 5475 5476 5477 5478 5480 5482
5537 5533 5530 5527 5524 5520 5517 5513 5510 5507 5503 5500 5496 5492 5489 5486 5482 5479 5475 5471 5468 5464 5462 5459 5457 5455 5453 5452 5451 5450 5450 5450 5450 5450 5451 5451 5451 5452 5454 5455 5457 5458 5459
5531 5527 5523 5519 5514 5510 5506 5502 5498 5494 5490 5485 5480 5475 5470 5466 5461 5456 5452 5448 5444 5441 5437 5435 5432 5429 5427 5427 5427 5427 5427 5427 5427 5428 5429 5429 5430 5431 5431 5432 5433 5435 5436
5524 5520 5515 5511 5506 5501 5495 5490 5485 5479 5472 5466 5461 5455 5449 5442 5436 5431 5425 5419 5414 5409 5405 5402 5401 5399 5398 5397 5397 5397 5398 5399 5400 5402 5403 5404 5405 5407 5408 5409 5411 5413 5414
5516 5512 5507 5502 5496 5490 5484 5477 5470 5462 5455 5448 5440 5432 5423 5416 5407 5398 5391 5383 5377 5372 5368 5365 5363 5362 5362 5362 5363 5364 5365 5367 5368 5371 5373 5375 5378 5380 5382 5384 5386 5389 5390
5507 5501 5496 5490 5484 5477 5470 5462 5455 5447 5438 5430 5420 5410 5398 5387 5375 5364 5355 5347 5339 5333 5329 5326 5323 5322 5321 5322 5322 5324 5327 5331 5334 5336 5340 5343 5347 5351 5354 5357 5360 5363 5366
5495 5489 5482 5476 5469 5461 5453 5445 5436 5427 5417 5407 5395 5383 5371 5359 5347 5336 5327 5319 5313 5309 5305 5302 5300 5298 5296 5295 5294 5294 5294 5296 5298 5301 5306 5310 5315 5319 5324 5328 5332 5336 5338
5482 5475 5468 5460 5452 5444 5435 5425 5414 5404 5393 5380 5367 5353 5340 5329 5320 5312 5305 5299 5293 5289 5285 5281 5279 5277 5275 5274 5273 5273 5272 5272 5273 5274 5277 5280 5284 5288 5293 5298 5303 5307 5311
5468 5460 5452 5443 5434 5425 5414 5402 5391 5378 5365 5352 5338 5326 5316 5306 5298 5289 5282 5277 5271 5267 5264 5261 5258 5257 5256 5255 5254 5253 5253 5253 5254 5255 5256 5258 5260 5263 5267 5271 5276 5280 5284
5452 5444 5435 5425 5415 5403 5392 5379 5366 5353 5339 5325 5314 5305 5295 5286 5276 5268 5261 5255 5250 5246 5243 5240 5238 5237 5237 5236 5236 5236 5236 5237 5237 5238 5239 5241 5242 5245 5247 5251 5254 5258 5261